This is the latest recevied weather packets stored in our database for station/object EB2BAG-11. If no packets are shown the sender has not sent any weather packets the latest 10 day(s).
| Time | Temp. | Humidity | Pressure | Rain* | Wind** | Luminosity | Snow |
|---|---|---|---|---|---|---|---|
| 1777685743 | 21.11° C | 46% | 1016.6 hPa | - | - | - | - |
| 1777684543 | 21.11° C | 46% | 1016.7 hPa | - | - | - | - |
| 1777683343 | 21.11° C | 46% | 1017.1 hPa | - | - | - | - |
| 1777682143 | 21.11° C | 47% | 1017.2 hPa | - | - | - | - |
| 1777680943 | 21.67° C | 47% | 1017.3 hPa | - | - | - | - |
| 1777679743 | 21.67° C | 48% | 1017.6 hPa | - | - | - | - |
| 1777678542 | 21.11° C | 49% | 1017.7 hPa | - | - | - | - |
| 1777677342 | 21.67° C | 48% | 1017.7 hPa | - | - | - | - |
| 1777676142 | 21.67° C | 49% | 1017.7 hPa | - | - | - | - |
| 1777674942 | 21.67° C | 50% | 1018 hPa | - | - | - | - |
| 1777673742 | 22.22° C | 49% | 1018.1 hPa | - | - | - | - |
| 1777672542 | 22.22° C | 48% | 1018.2 hPa | - | - | - | - |
| 1777671342 | 22.22° C | 47% | 1018.3 hPa | - | - | - | - |
| 1777670142 | 22.22° C | 47% | 1018.6 hPa | - | - | - | - |
| 1777668941 | 22.22° C | 47% | 1018.1 hPa | - | - | - | - |
| 1777667741 | 22.78° C | 49% | 1018.3 hPa | - | - | - | - |
| 1777666541 | 22.78° C | 50% | 1018.2 hPa | - | - | - | - |
| 1777665341 | 22.22° C | 54% | 1018.3 hPa | - | - | - | - |
| 1777664141 | 22.22° C | 65% | 1018.2 hPa | - | - | - | - |
| 1777662941 | 22.22° C | 66% | 1018.1 hPa | - | - | - | - |
| 1777661741 | 23.89° C | 63% | 1017.8 hPa | - | - | - | - |
| 1777660541 | 23.33° C | 63% | 1018.1 hPa | - | - | - | - |
| 1777659341 | 24.44° C | 63% | 1017.8 hPa | - | - | - | - |
| 1777658141 | 25.56° C | 61% | 1017.8 hPa | - | - | - | - |
| 1777656941 | 25.56° C | 58% | 1017.7 hPa | - | - | - | - |
* Rain since midnight (hover to see other rain measurements)
** Current wind speed in m/s (hover to see current wind gust speed)